Weather History for Madera, CA

Change the Weather History Date:

Tuesday, December 11, 2012

  Actual Average Record
Temperature  
Mean Temperature 51 °F 46 °F  
Max Temperature 61 °F 55 °F 61 °F (2010)
Min Temperature 41 °F 36 °F 26 °F (2013)
Degree Days  
Heating Degree Days 14    
Month to date heating degree days 125  
Since 1 July heating degree days 493  
Cooling Degree Days 0    
Month to date cooling degree days 0  
Year to date cooling degree days 1737  
Growing Degree Days 1 (Base 50)    
Moisture  
Dew Point 44 °F    
Average Humidity 78    
Maximum Humidity 100    
Minimum Humidity 55    
Precipitation  
Precipitation 0.01 in 0.04 in 0.56 in (2009)
Month to date precipitation 0.72 0.42  
Year to date precipitation 9.12 10.74  
Since 1 July precipitation 2.90 2.74  
Snow  
Snow 0.00 in - - ()
Month to date snowfall 0.0  
Since 1 July snowfall 0.0  
Snow Depth 0.00 in    
Sea Level Pressure  
Sea Level Pressure 30.00 in    
Wind  
Wind Speed 5 mph (ESE)    
Max Wind Speed 13 mph    
Max Gust Speed 15 mph    
Visibility 2 miles    
Events Fog    
T = Trace of Precipitation, MM = Missing Value Source: NWS Daily Summary

Daily Weather History Graph

Daily Weather History Graph

Search for Another Location

Airport:

Trip Planner

Search our weather history database for the weather conditions in past years. The results will help you decide how hot, cold, wet, or windy it might be!

Date:

Astronomy

Dec. 11, 2012 Rise Set
Actual Time 7:04 AM PST 4:44 PM PST
Civil Twilight 6:35 AM PST 5:12 PM PST
Nautical Twilight 6:02 AM PST 5:45 PM PST
Astronomical Twilight 5:31 AM PST 6:17 PM PST
Moon 5:06 AM PST (12/11) 3:26 PM PST (12/11)
Length of Visible Light 10h 37m
Length of Day
9h 40m
Waning Crescent, 4% of the Moon is Illuminated
Dec 11
Waning Crescent
Dec 13
New
Dec 19
First Quarter
Dec 28
Full
Jan 4
Last Quarter

Hourly Weather History & Observations

Time (PST) Temp. Windchill Dew Point Humidity Pressure Visibility Wind Dir Wind Speed Gust Speed Precip Events Conditions
12:06 AM 42.8 °F 41.1 °F 42.8 °F 100% 30.14 in 0.8 mi SE 3.5 mph - N/A   Clear
12:27 AM 42.8 °F 40.1 °F 41.0 °F 93% 30.14 in 0.8 mi ESE 4.6 mph - N/A   Mist
12:40 AM 42.8 °F 39.3 °F 41.0 °F 93% 30.14 in 1.2 mi East 5.8 mph - N/A   Clear
12:53 AM 42.1 °F 38.4 °F 41.0 °F 96% 30.13 in 1.8 mi East 5.8 mph - N/A   Clear
1:53 AM 42.1 °F 38.4 °F 41.0 °F 96% 30.13 in 1.2 mi East 5.8 mph - N/A   Clear
2:32 AM 42.8 °F 41.1 °F 41.0 °F 93% 30.12 in 0.8 mi East 3.5 mph - N/A   Mist
2:40 AM 41.0 °F 38.0 °F 41.0 °F 100% 30.12 in 0.2 mi ESE 4.6 mph - N/A Fog Fog
2:44 AM 41.0 °F 38.0 °F 41.0 °F 100% 30.12 in 0.2 mi East 4.6 mph - N/A Fog Fog
2:53 AM 43.0 °F 39.5 °F 41.0 °F 93% 30.12 in 0.2 mi East 5.8 mph - N/A Fog Fog
3:53 AM 41.0 °F 37.1 °F 39.9 °F 96% 30.11 in 0.2 mi East 5.8 mph - N/A Fog Fog
4:53 AM 43.0 °F 39.5 °F 42.1 °F 97% 30.09 in 0.2 mi East 5.8 mph - N/A Fog Fog
5:53 AM 44.1 °F 41.5 °F 43.0 °F 96% 30.09 in 0.2 mi East 4.6 mph - N/A Fog Fog
6:53 AM 43.0 °F 40.3 °F 42.1 °F 97% 30.08 in 0.2 mi East 4.6 mph - N/A Fog Fog
7:53 AM 44.1 °F 40.8 °F 43.0 °F 96% 30.09 in 0.2 mi SE 5.8 mph - N/A Fog Fog
8:53 AM 45.0 °F 42.6 °F 45.0 °F 100% 30.09 in 0.2 mi ESE 4.6 mph - N/A Fog Fog
9:53 AM 46.0 °F 43.9 °F 46.0 °F 100% 30.08 in 0.2 mi East 4.6 mph - 0.01 in Fog Fog
10:53 AM 48.9 °F - 48.0 °F 97% 30.06 in 1.5 mi SSE 3.5 mph - N/A   Mostly Cloudy
11:05 AM 50.0 °F - 48.2 °F 94% 30.05 in 2.0 mi SSE 4.6 mph - N/A   Scattered Clouds
11:45 AM 53.6 °F - 48.2 °F 82% 30.02 in 3.0 mi South 4.6 mph - N/A   Haze
11:53 AM 54.0 °F - 48.0 °F 80% 30.01 in 3.0 mi SSE 6.9 mph - N/A   Haze
12:53 PM 57.9 °F - 48.0 °F 70% 29.98 in 4.0 mi Variable 5.8 mph - N/A   Haze
1:53 PM 60.1 °F - 46.0 °F 60% 29.95 in 5.0 mi SSE 5.8 mph - N/A   Haze
2:53 PM 61.0 °F - 45.0 °F 56% 29.93 in 6.0 mi South 4.6 mph - N/A   Haze
3:53 PM 60.1 °F - 46.0 °F 60% 29.91 in 6.0 mi SSE 4.6 mph - N/A   Haze
4:53 PM 55.0 °F - 45.0 °F 69% 29.90 in 5.0 mi SSE 3.5 mph - N/A   Haze
5:53 PM 54.0 °F - 46.0 °F 75% 29.88 in 5.0 mi SE 4.6 mph - N/A   Haze
6:53 PM 51.1 °F - 45.0 °F 80% 29.88 in 4.0 mi Calm Calm - N/A   Haze
7:53 PM 50.0 °F - 46.0 °F 86% 29.87 in 4.0 mi Calm Calm - N/A   Clear
8:53 PM 48.9 °F - 45.0 °F 86% 29.86 in 3.0 mi East 6.9 mph - N/A   Clear
10:09 PM 48.2 °F - 44.6 °F 87% 29.88 in 2.5 mi NW 6.9 mph - N/A   Clear
10:17 PM 48.2 °F - 44.6 °F 87% 29.88 in 3.0 mi NW 4.6 mph - N/A   Clear
10:45 PM 46.4 °F 42.9 °F 42.8 °F 87% 29.88 in 2.5 mi North 6.9 mph - N/A   Clear
10:53 PM 46.9 °F - 44.1 °F 90% 29.88 in 3.0 mi NE 3.5 mph - N/A   Clear
11:11 PM 46.4 °F 44.3 °F 44.6 °F 93% 29.87 in 2.5 mi NE 4.6 mph - N/A   Clear
11:22 PM 46.4 °F 43.5 °F 44.6 °F 93% 29.86 in 3.0 mi ENE 5.8 mph - N/A   Clear
11:36 PM 46.4 °F 41.5 °F 42.8 °F 87% 29.88 in 2.5 mi NW 10.4 mph - N/A   Clear
11:53 PM 46.9 °F - 44.1 °F 90% 29.89 in 2.5 mi NNW 10.4 mph - N/A   Clear